Flag for Netherlands Weather past 2 weeks in Arnhem, Netherlands

Now
36 °F

Fog.


Feels Like: 32 °F
Forecast: 36 / 62 °F
Wind: 5 mph from North

Location: Deelen

Current Time: Apr 22, 2015 at 3:51:31 AM

Latest Report: Apr 22, 2015 at 3:25 AM


Visibility: 4 mi

Pressure: 30.48 "Hg

Humidity: 93%

Dew point: 34 °F

Location of ArnhemLocation

Historic Weather in Arnhem — Graph

°F

Arnhem temperature yesterday

Maximum temperature yesterday: 66 °F (at 1:55 PM)
Minimum temperature yesterday: 32 °F (at 6:25 AM)
Average temperature yesterday: 50 °F

Past Weeks' High & Low Weather Summary

 TemperatureHumidityPressure
High73 °F (Apr 15, 3:55 PM)100% (Apr 7, 4:25 AM)30.60 "Hg (Apr 7, 4:25 AM)
Low28 °F (Apr 7, 5:25 AM)28% (Apr 21, 1:55 PM)29.92 "Hg (Apr 11, 3:55 AM)
Average49 °F69%30.27 "Hg
* Reported Apr 7 2:25 AM — Apr 22 2:25 AM, Arnhem, Weather by CustomWeather, © 2015

Note: Actual official high and low records may vary slightly from our data, if they occured in-between our weather recording intervals... More about our weather records

Advertising

Arnhem weather history for previous 24 hours

 ConditionsComfort  
Time TempWeatherWind HumidityBarometerVisibility
2:25 AM
Wed, Apr 22
36 °FFog.2 mph93%30.48 "Hg6 mi
1:55 AM36 °FFog.2 mph100%30.48 "Hg5 mi
1:25 AM37 °FPassing clouds.2 mph93%30.48 "HgN/A
12:55 AM39 °FPassing clouds.3 mph93%30.48 "HgN/A
12:25 AM41 °FPassing clouds.3 mph93%30.48 "HgN/A
11:55 PM
Tue, Apr 21
43 °FPassing clouds.7 mph87%30.48 "HgN/A
11:25 PM43 °FPassing clouds.9 mph87%30.48 "HgN/A
10:55 PM45 °FPassing clouds.12 mph81%30.48 "HgN/A
10:25 PM45 °FClear.10 mph81%30.48 "HgN/A
9:55 PM46 °FPassing clouds.10 mph76%30.48 "HgN/A
9:25 PM48 °FPassing clouds.10 mph76%30.48 "HgN/A
8:55 PM48 °FCool.9 mph82%30.45 "HgN/A
8:25 PM50 °FPassing clouds.13 mph76%30.45 "HgN/A
7:55 PM54 °FCool.14 mph67%30.45 "HgN/A
7:25 PM57 °FPassing clouds.12 mph59%30.42 "HgN/A
6:55 PM59 °FPassing clouds.12 mph48%30.42 "HgN/A
6:25 PM61 °FRefreshingly cool.15 mph36%30.42 "HgN/A
5:55 PM61 °FRefreshingly cool.15 mph29%30.45 "HgN/A
5:25 PM63 °FMild.14 mph37%30.45 "HgN/A
4:55 PM63 °FMild.15 mph42%30.45 "HgN/A
4:25 PM64 °FMild.15 mph43%30.45 "HgN/A
3:55 PM64 °FMild.15 mph46%30.45 "HgN/A
3:25 PM64 °FMild.15 mph43%30.45 "HgN/A
2:55 PM66 °FPassing clouds.13 mph35%30.45 "HgN/A
2:25 PM66 °FPassing clouds.10 mph30%30.45 "HgN/A
1:55 PM66 °FPartly sunny.10 mph28%30.45 "HgN/A
1:25 PM64 °FPassing clouds.9 mph40%30.45 "HgN/A
12:55 PM64 °FPassing clouds.7 mph40%30.45 "HgN/A
12:25 PM64 °FPassing clouds.6 mph40%30.45 "HgN/A
11:55 AM63 °FMild.5 mph42%30.45 "HgN/A
11:25 AM61 °FRefreshingly cool.6 mph36%30.48 "HgN/A
10:55 AM59 °FPassing clouds.6 mph39%30.45 "HgN/A
10:25 AM57 °FPassing clouds.5 mph48%30.45 "HgN/A
9:55 AM54 °FPassing clouds.3 mph58%30.45 "HgN/A
9:25 AM52 °FCool.3 mph67%30.45 "HgN/A
8:55 AM46 °FCool.5 mph87%30.45 "HgN/A
8:25 AM41 °FPassing clouds.2 mph93%30.45 "HgN/A
7:55 AM36 °FFog.No wind93%30.45 "Hg4 mi
7:25 AM34 °FFog.1 mph93%30.45 "Hg2 mi
6:55 AM32 °FIce fog.2 mph93%30.42 "Hg0 mi
6:25 AM32 °FIce fog.1 mph100%30.42 "Hg0 mi
5:55 AM34 °FFog.3 mph93%30.42 "Hg0 mi
5:25 AM34 °FFog.3 mph87%30.42 "Hg6 mi
4:55 AM34 °FPassing clouds.1 mph100%30.42 "HgN/A
4:25 AM36 °FPassing clouds.1 mph100%30.42 "HgN/A
3:55 AM36 °FChilly.2 mph93%30.42 "HgN/A
3:25 AM36 °FPassing clouds.2 mph93%30.42 "HgN/A
Weather by CustomWeather, © 2015

See weather overviewHow to use our weather pages